Location: Indian Hills
(32.9760°N, 85.9450°W)
Time: 16:48:45
(UTC+00:00)

Cosmos 1782 Rocket - Pass Details

Date: 09 December 2019
Orbit: 606 x 633 km, 82.5° (Epoch: 21 January)

Event Time Altitude Azimuth Distance (km) Brightness Sun altitude
Rises 00:13:30 0° 355° (N) 2,876 6.9 -19.7°
Reaches altitude 10° 00:15:44 10° 357° (N) 1,965 6.0 -20.2°
Maximum altitude 00:20:05 75° 83° (E) 630 3.3 -21.1°
Drops below altitude 10° 00:24:23 10° 169° (S) 1,947 6.1 -21.9°
Sets 00:26:35 0° 171° (S) 2,847 7.0 -22.4°
